Weather History for Fort Lauderdale, FL

Change the Weather History Date:

Monday, February 18, 2013

  Actual Average Record
Temperature  
Mean Temperature 58 °F -  
Max Temperature 69 °F 79 °F 89 °F (1992)
Min Temperature 46 °F 61 °F 37 °F (1977)
Degree Days  
Heating Degree Days 8    
Growing Degree Days 8 (Base 50)    
Moisture  
Dew Point 43 °F    
Average Humidity 55    
Maximum Humidity 63    
Minimum Humidity 42    
Precipitation  
Precipitation 0.00 in - - ()
Sea Level Pressure  
Sea Level Pressure 30.28 in    
Wind  
Wind Speed 10 mph (NE)    
Max Wind Speed 18 mph    
Max Gust Speed 26 mph    
Visibility 10 miles    
Events      
Averages and records for this station are not official NWS values.
T = Trace of Precipitation, MM = Missing Value Source: NWS Daily Summary

Daily Weather History Graph

Daily Weather History Graph

Search for Another Location

Airport:

Trip Planner

Search our weather history database for the weather conditions in past years. The results will help you decide how hot, cold, wet, or windy it might be!

Date:

Astronomy

Feb. 18, 2013 Rise Set
Actual Time 6:53 AM EST 6:15 PM EST
Civil Twilight 6:30 AM EST 6:39 PM EST
Nautical Twilight 6:03 AM EST 7:06 PM EST
Astronomical Twilight 5:36 AM EST 7:33 PM EST
Moon 12:16 PM EST (2/18) 1:17 AM EST (2/18)
Length of Visible Light 12h 09m
Length of Day
11h 22m
First Quarter, 58% of the Moon is Illuminated
Feb 18
First Quarter
Feb 25
Full
Mar 4
Last Quarter
Mar 11
New
Mar 19
First Quarter

Hourly Weather History & Observations

Time (EST) Temp. Windchill Dew Point Humidity Pressure Visibility Wind Dir Wind Speed Gust Speed Precip Events Conditions
12:53 AM 48.0 °F - 35.1 °F 61% 30.31 in 10.0 mi NNW 6.9 mph - N/A   Clear
1:53 AM 46.9 °F - 35.1 °F 63% 30.30 in 10.0 mi NNW 6.9 mph - N/A   Clear
2:53 AM 46.9 °F - 34.0 °F 61% 30.28 in 10.0 mi NNW 8.1 mph - N/A   Clear
3:53 AM 46.9 °F - 34.0 °F 61% 30.27 in 10.0 mi NNW 9.2 mph - N/A   Clear
4:53 AM 46.9 °F - 33.1 °F 59% 30.28 in 10.0 mi NNW 10.4 mph - N/A   Clear
5:53 AM 46.9 °F - 32.0 °F 56% 30.29 in 10.0 mi NNW 8.1 mph - N/A   Scattered Clouds
6:53 AM 46.4 °F 43.5 °F 33.8 °F 62% 30.28 in 10.0 mi NNW 5.8 mph - N/A   Clear
7:53 AM 48.0 °F - 34.0 °F 58% 30.31 in 10.0 mi NNW 5.8 mph - N/A   Partly Cloudy
8:53 AM 53.1 °F - 37.9 °F 57% 30.32 in 10.0 mi North 3.5 mph - N/A   Scattered Clouds
9:53 AM 60.1 °F - 43.0 °F 53% 30.32 in 10.0 mi Variable 4.6 mph - N/A   Scattered Clouds
10:18 AM 64.4 °F - 42.8 °F 45% 30.32 in 10.0 mi East 17.3 mph 26.5 mph N/A   Overcast
10:53 AM 66.9 °F - 44.1 °F 44% 30.33 in 10.0 mi ENE 15.0 mph 21.9 mph N/A   Scattered Clouds
11:53 AM 68.0 °F - 44.1 °F 42% 30.32 in 10.0 mi East 18.4 mph 21.9 mph N/A   Scattered Clouds
12:53 PM 66.9 °F - 46.0 °F 47% 30.30 in 10.0 mi East 16.1 mph 19.6 mph N/A   Scattered Clouds
1:53 PM 68.0 °F - 46.9 °F 47% 30.28 in 10.0 mi East 13.8 mph 23.0 mph N/A   Mostly Cloudy
2:53 PM 69.1 °F - 48.9 °F 49% 30.25 in 10.0 mi ENE 18.4 mph 24.2 mph N/A   Mostly Cloudy
3:53 PM 68.0 °F - 48.9 °F 50% 30.24 in 10.0 mi East 16.1 mph - N/A   Mostly Cloudy
4:53 PM 66.9 °F - 48.9 °F 52% 30.25 in 10.0 mi East 15.0 mph 21.9 mph N/A   Mostly Cloudy
5:53 PM 66.0 °F - 48.0 °F 52% 30.25 in 10.0 mi East 11.5 mph - N/A   Mostly Cloudy
6:53 PM 64.9 °F - 50.0 °F 58% 30.25 in 10.0 mi East 11.5 mph - N/A   Mostly Cloudy
7:53 PM 66.9 °F - 50.0 °F 54% 30.25 in 10.0 mi East 15.0 mph - N/A   Scattered Clouds
8:53 PM 66.0 °F - 51.1 °F 59% 30.24 in 10.0 mi East 11.5 mph - N/A   Scattered Clouds
9:53 PM 66.9 °F - 53.1 °F 61% 30.23 in 10.0 mi East 13.8 mph - N/A   Mostly Cloudy
10:53 PM 68.0 °F - 52.0 °F 56% 30.23 in 10.0 mi ESE 12.7 mph - 0.00 in   Overcast
11:53 PM 66.9 °F - 52.0 °F 59% 30.22 in 10.0 mi SE 10.4 mph - N/A   Clear